Location: Vancouver
(49.2500°N, 123.1330°W)
Time: 18:49:02
(UTC-08:00)

Cosmos 2333 Rocket - Visible Passes

Search period start: 11 December 2017 00:00
Search period end: 21 December 2017 00:00
Orbit: 837 x 864 km, 70.8° (Epoch: 11 December)

Date Brightness Start Highest point End Pass type
(mag) Time Alt. Az. Time Alt. Az. Time Alt. Az.
11 Dec 4.6 05:39:54 10° N 05:42:22 13° NNE 05:44:49 10° NE visible
12 Dec 4.6 05:27:36 10° N 05:30:03 13° NNE 05:32:30 10° NE visible
12 Dec 3.4 07:10:41 10° NNW 07:16:06 39° NE 07:21:27 10° ESE visible
13 Dec 4.6 05:15:18 10° N 05:17:45 13° NNE 05:20:12 10° NE visible
13 Dec 3.4 06:58:23 10° NNW 07:03:48 39° NE 07:09:09 10° ESE visible
14 Dec 4.6 05:03:00 10° N 05:05:26 13° NNE 05:07:53 10° NE visible
14 Dec 3.4 06:46:05 10° NNW 06:51:29 39° NE 06:56:50 10° ESE visible
15 Dec 4.6 04:50:47 10° N 04:53:08 13° NNE 04:55:35 10° NE visible
15 Dec 3.4 06:33:47 10° NNW 06:39:11 39° NE 06:44:32 10° ESE visible
16 Dec 4.6 04:38:53 11° N 04:40:50 13° NNE 04:43:16 10° NE visible
16 Dec 3.4 06:21:28 10° NNW 06:26:53 39° NE 06:32:14 10° ESE visible
17 Dec 4.6 04:27:00 11° N 04:28:32 13° NNE 04:30:58 10° NE visible
17 Dec 3.4 06:09:10 10° NNW 06:14:35 39° NE 06:19:55 10° ESE visible
18 Dec 4.7 04:15:09 12° NNE 04:16:13 13° NNE 04:18:40 10° NE visible
18 Dec 3.4 05:57:09 11° NNW 06:02:16 39° NE 06:07:37 10° ESE visible
19 Dec 4.7 04:03:20 12° NNE 04:03:55 13° NNE 04:06:21 10° NE visible
19 Dec 3.4 05:45:20 14° NNW 05:49:58 39° NE 05:55:19 10° ESE visible
20 Dec 4.8 03:51:33 13° NNE 03:51:37 13° NNE 03:54:02 10° NE visible
20 Dec 3.4 05:33:34 16° NNW 05:37:40 39° NE 05:43:00 10° ESE visible
20 Dec 2.7 07:16:35 10° NW 07:22:02 44° WSW 07:27:26 10° S visible
